Weather History for KASW - February, 2012

Change the Weather History Date:

Thursday, February 2, 2012

  Actual Average Record
Temperature  
Mean Temperature 34 °F -  
Max Temperature 39 °F 34 °F 53 °F (1968)
Min Temperature 30 °F 16 °F -14 °F (1951)
Degree Days  
Heating Degree Days 30    
Moisture  
Dew Point 32 °F    
Average Humidity 91    
Maximum Humidity 100    
Minimum Humidity 75    
Precipitation  
Precipitation 0.00 in - - ()
Sea Level Pressure  
Sea Level Pressure 30.26 in    
Wind  
Wind Speed 2 mph (WNW)    
Max Wind Speed 8 mph    
Max Gust Speed -    
Visibility 6 miles    
Events      
Averages and records for this station are not official NWS values.
T = Trace of Precipitation, MM = Missing Value Source: NWS Daily Summary

Daily Weather History Graph

Daily Weather History Graph

Search for Another Location

Airport or City:

Trip Planner

Search our weather history database for the weather conditions in past years. The results will help you decide how hot, cold, wet, or windy it might be!

Date:

Astronomy

Feb. 02, 2012 Rise Set
Actual Time 7:54 AM EST 6:00 PM EST
Civil Twilight 7:24 AM EST 6:29 PM EST
Nautical Twilight 6:51 AM EST 7:02 PM EST
Astronomical Twilight 6:19 AM EST 7:35 PM EST
Moon 1:10 PM EST (2/2) 3:36 AM EST (2/2)
Length of Visible Light 11h 04m
Length of Day
10h 06m
Waxing Gibbous, 73% of the Moon is Illuminated
Feb 2
Waxing Gibbous
Feb 7
Full
Feb 14
Last Quarter
Feb 21
New
Feb 29
First Quarter

Hourly Weather History & Observations

Time (EST) Temp. Windchill Dew Point Humidity Pressure Visibility Wind Dir Wind Speed Gust Speed Precip Events Conditions
12:15 AM 32.0 °F 27.5 °F 32.0 °F 100% 30.15 in 5.0 mi NNW 4.6 mph - N/A   Clear
12:35 AM 32.0 °F - 32.0 °F 100% 30.15 in 5.0 mi Calm Calm - N/A   Clear
12:55 AM 32.0 °F - 32.0 °F 100% 30.14 in 5.0 mi Calm Calm - N/A   Clear
1:15 AM 32.0 °F - 32.0 °F 100% 30.13 in 4.0 mi Calm Calm - N/A   Clear
1:35 AM 32.0 °F - 32.0 °F 100% 30.14 in 4.0 mi Calm Calm - N/A   Clear
1:55 AM 32.0 °F 28.7 °F 32.0 °F 100% 30.13 in 4.0 mi North 3.5 mph - N/A   Clear
2:15 AM 32.0 °F 28.7 °F 32.0 °F 100% 30.14 in 4.0 mi NNW 3.5 mph - N/A   Clear
2:35 AM 32.0 °F 28.7 °F 32.0 °F 100% 30.15 in 5.0 mi NNW 3.5 mph - N/A   Scattered Clouds
2:55 AM 32.0 °F 28.7 °F 32.0 °F 100% 30.16 in 5.0 mi NW 3.5 mph - N/A   Clear
3:15 AM 32.0 °F 28.7 °F 32.0 °F 100% 30.17 in 5.0 mi NW 3.5 mph - N/A   Clear
3:35 AM 32.0 °F - 32.0 °F 100% 30.17 in 5.0 mi Calm Calm - N/A   Clear
3:55 AM 32.0 °F - 32.0 °F 100% 30.17 in 5.0 mi Calm Calm - N/A   Mostly Cloudy
4:15 AM 32.0 °F - 32.0 °F 100% 30.17 in 4.0 mi Calm Calm - N/A   Overcast
4:35 AM 32.0 °F - 32.0 °F 100% 30.18 in 5.0 mi Calm Calm - N/A   Overcast
4:55 AM 32.0 °F - 32.0 °F 100% 30.18 in 7.0 mi Calm Calm - N/A   Overcast
5:15 AM 32.0 °F - 32.0 °F 100% 30.18 in 7.0 mi Calm Calm - N/A   Overcast
5:35 AM 32.0 °F - 32.0 °F 100% 30.19 in 7.0 mi Calm Calm - N/A   Overcast
5:55 AM 33.8 °F - 32.0 °F 93% 30.19 in 7.0 mi Calm Calm - N/A   Overcast
6:15 AM 33.8 °F - 32.0 °F 93% 30.20 in 7.0 mi Calm Calm - N/A   Overcast
6:35 AM 33.8 °F - 32.0 °F 93% 30.21 in 7.0 mi Calm Calm - N/A   Overcast
6:55 AM 32.0 °F - 32.0 °F 100% 30.21 in 5.0 mi Calm Calm - N/A   Overcast
7:15 AM 32.0 °F - 32.0 °F 100% 30.21 in 7.0 mi Calm Calm - N/A   Overcast
7:35 AM 32.0 °F - 32.0 °F 100% 30.22 in 5.0 mi Calm Calm - N/A   Overcast
8:15 AM 32.0 °F - 32.0 °F 100% 30.25 in 4.0 mi Calm Calm - N/A   Overcast
8:35 AM 33.8 °F - 32.0 °F 93% 30.26 in 5.0 mi Calm Calm - N/A   Overcast
8:55 AM 33.8 °F 30.8 °F 32.0 °F 93% 30.28 in 5.0 mi WNW 3.5 mph - N/A   Overcast
9:35 AM 35.6 °F - 32.0 °F 87% 30.26 in 7.0 mi Calm Calm - N/A   Overcast
9:55 AM 35.6 °F - 32.0 °F 87% 30.27 in 7.0 mi Calm Calm - N/A   Overcast
10:15 AM 35.6 °F - 32.0 °F 87% 30.27 in 7.0 mi Calm Calm - N/A   Overcast
10:35 AM 35.6 °F - 32.0 °F 87% 30.27 in 7.0 mi Calm Calm - N/A   Overcast
10:55 AM 35.6 °F - 32.0 °F 87% 30.28 in 10.0 mi Calm Calm - N/A   Overcast
11:15 AM 37.4 °F - 32.0 °F 81% 30.29 in 10.0 mi Calm Calm - N/A   Overcast
11:35 AM 37.4 °F - 32.0 °F 81% 30.30 in 10.0 mi Calm Calm - N/A   Overcast
11:55 AM 37.4 °F 32.8 °F 32.0 °F 81% 30.31 in 10.0 mi WNW 5.8 mph - N/A   Overcast
12:15 PM 37.4 °F 32.8 °F 32.0 °F 81% 30.31 in 10.0 mi West 5.8 mph - N/A   Overcast
12:35 PM 37.4 °F 33.8 °F 32.0 °F 81% 30.30 in 7.0 mi West 4.6 mph - N/A   Overcast
12:55 PM 37.4 °F 32.8 °F 32.0 °F 81% 30.31 in 7.0 mi WSW 5.8 mph - N/A   Overcast
1:55 PM 39.2 °F 35.0 °F 32.0 °F 75% 30.31 in 10.0 mi West 5.8 mph - N/A   Overcast
2:15 PM 39.2 °F 34.2 °F 32.0 °F 75% 30.31 in 7.0 mi West 6.9 mph - N/A   Overcast
2:35 PM 39.2 °F 37.0 °F 32.0 °F 75% 30.31 in 7.0 mi West 3.5 mph - N/A   Overcast
2:55 PM 41.0 °F 36.4 °F 32.0 °F 70% 30.31 in 7.0 mi WSW 6.9 mph - N/A   Overcast
3:15 PM 39.2 °F 35.0 °F 32.0 °F 75% 30.32 in 5.0 mi West 5.8 mph - N/A   Haze
3:35 PM 37.4 °F 32.8 °F 32.0 °F 81% 30.32 in 7.0 mi West 5.8 mph - N/A   Overcast
3:55 PM 37.4 °F 34.9 °F 32.0 °F 81% 30.32 in 7.0 mi NW 3.5 mph - N/A   Overcast
4:15 PM 39.2 °F 35.0 °F 32.0 °F 75% 30.32 in 7.0 mi West 5.8 mph - N/A   Overcast
4:35 PM 39.2 °F - 32.0 °F 75% 30.32 in 7.0 mi Calm Calm - N/A   Scattered Clouds
4:55 PM 39.2 °F - 32.0 °F 75% 30.32 in 7.0 mi Calm Calm - N/A   Clear
5:15 PM 39.2 °F - 32.0 °F 75% 30.33 in 7.0 mi Calm Calm - N/A   Clear
5:55 PM 37.4 °F - 32.0 °F 81% 30.33 in 5.0 mi Calm Calm - N/A   Haze
6:15 PM 35.6 °F - 32.0 °F 87% 30.33 in 4.0 mi Calm Calm - N/A   Haze
6:35 PM 33.8 °F - 32.0 °F 93% 30.34 in 5.0 mi Calm Calm - N/A   Clear
6:55 PM 32.0 °F - 32.0 °F 100% 30.34 in 5.0 mi Calm Calm - N/A   Clear
7:15 PM 32.0 °F - 32.0 °F 100% 30.35 in 4.0 mi Calm Calm - N/A   Clear
7:35 PM 32.0 °F - 32.0 °F 100% 30.35 in 4.0 mi Calm Calm - N/A   Clear
7:55 PM 32.0 °F - 30.2 °F 93% 30.36 in 3.0 mi Calm Calm - N/A   Clear
8:15 PM 30.2 °F - 30.2 °F 100% 30.36 in 2.5 mi Calm Calm - N/A   Clear
8:35 PM 30.2 °F - 30.2 °F 100% 30.37 in 2.5 mi Calm Calm - N/A   Clear
8:55 PM 30.2 °F - 30.2 °F 100% 30.36 in 2.5 mi Calm Calm - N/A   Clear
9:15 PM 30.2 °F - 28.4 °F 93% 30.37 in 2.5 mi Calm Calm - N/A   Clear
9:35 PM 30.2 °F - 28.4 °F 93% 30.38 in 1.5 mi Calm Calm - N/A   Mist
9:55 PM 30.2 °F - 28.4 °F 93% 30.38 in 2.0 mi Calm Calm - N/A   Clear
10:15 PM 28.4 °F - 28.4 °F 100% 30.38 in 2.0 mi Calm Calm - N/A   Clear
10:35 PM 28.4 °F - 28.4 °F 100% 30.38 in 1.8 mi Calm Calm - N/A   Mist
10:55 PM 28.4 °F - 28.4 °F 100% 30.38 in 1.5 mi Calm Calm - N/A   Mist
11:15 PM 28.4 °F - 28.4 °F 100% 30.39 in 1.8 mi Calm Calm - N/A   Mist
11:35 PM 28.4 °F - 28.4 °F 100% 30.39 in 1.0 mi Calm Calm - N/A   Mist
11:55 PM 28.4 °F - 26.6 °F 93% 30.40 in 2.0 mi Calm Calm - N/A   Clear